Location: Newark
(43.0847°N, 2.6989°E)
Time: 14:13:54
(UTC+00:00)

ISS - Visible Passes

Search period start: 26 January 2020 00:00
Search period end: 05 February 2020 00:00
Orbit: 416 x 423 km, 51.6° (Epoch: 27 January)

Date Brightness Start Highest point End Pass type
(mag) Time Alt. Az. Time Alt. Az. Time Alt. Az.
26 Jan -3.0 17:25:05 10° WSW 17:28:22 46° NNW 17:31:39 10° NE visible
26 Jan -1.4 19:03:11 10° WNW 19:04:54 18° NNW 19:04:54 18° NNW visible
27 Jan -1.9 18:15:19 10° WNW 18:18:03 22° NNW 18:19:21 18° NNE visible
28 Jan -2.2 17:27:25 10° WNW 17:30:20 26° NNW 17:33:17 10° NE visible
28 Jan -1.3 19:05:26 10° NW 19:06:44 16° NNW 19:06:44 16° NNW visible
29 Jan -1.8 18:17:41 10° NW 18:20:11 19° N 18:21:08 17° NNE visible
30 Jan -1.8 17:29:50 10° WNW 17:32:25 20° N 17:35:00 10° NE visible
30 Jan -1.3 19:07:16 10° NW 19:08:31 17° NNW 19:08:31 17° NNW visible
31 Jan -2.0 18:19:40 10° NW 18:22:18 20° N 18:22:57 19° NNE visible
01 Feb -1.9 17:32:00 10° NW 17:34:31 19° N 17:37:01 10° NE visible
01 Feb -1.7 19:08:49 10° NW 19:10:23 22° NNW 19:10:23 22° NNW visible
02 Feb -2.6 18:21:18 10° NW 18:24:17 28° NNE 18:24:54 26° NE visible
03 Feb -2.2 17:33:44 10° NW 17:36:32 23° NNE 17:39:19 10° ENE visible
03 Feb -2.3 19:10:20 10° NW 19:12:28 36° NW 19:12:28 36° NW visible
04 Feb -3.5 18:22:46 10° NW 18:26:05 52° NNE 18:27:10 35° E visible
04 Feb -0.2 20:00:00 10° W 20:00:09 11° W 20:00:09 11° W visible
